Regional Weather Roundup
Issued by NWS Albany, NY

Home | Current Version | Previous Version | Text Only | Print | Product List | Glossary On
Versions: 1 2 3 4 5 6 7 8 9 10 11 12 13 14 15 16 17 18 19 20 21 22 23 24 25 26 27 28
000
ASUS41 KALY 181510
RWRALY

NEW YORK STATE HOURLY WEATHER ROUNDUP
NATIONAL WEATHER SERVICE ALBANY NY
1100 AM EDT FRI AUG 18 2017

NOTE: "FAIR" INDICATES FEW OR NO CLOUDS BELOW 12,000 FEET WITH NO
SIGNIFICANT WEATHER AND/OR NO OBSTRUCTIONS TO VISIBILITY.

NYZ032-033-038>043-046>054-057>066-NYZ062>081-082-084-181600-
EAST


CITY           SKY/WX    TMP DP  RH WIND       PRES   REMARKS
ALBANY         LGT RAIN  74  70  87 S12       29.82F
GLENS FALLS    CLOUDY    67  65  93 E3        29.82S FOG
POUGHKEEPSIE   CLOUDY    76  70  82 S7        29.86S
NEWBURGH       CLOUDY    75  73  94 SW8       29.89S
MONTGOMERY     LGT RAIN  76  72  87 S6        29.86S
WHITE PLAINS   LGT RAIN  75  74  96 VRB7      29.89S FOG
ISLIP          HVY RAIN  76  75  97 SW12G22   29.90R VSB 1/2
NEW YORK CITY  CLOUDY    76  75  97 VRB5      29.87S
CENTRAL PARK   CLOUDY    76  75  97 CALM      29.91S FOG
$$

NYZ005>009-017-018-044>046-055-056-181600-
CENTRAL


CITY           SKY/WX    TMP DP  RH WIND       PRES   REMARKS
FULTON         CLOUDY    82  71  69 SW10      29.76F
SYRACUSE       PTSUNNY   81  70  69 SW13      29.76S
ROME           PTSUNNY   79  73  82 CALM      29.78F
ELMIRA         CLOUDY    77  73  87 SW6       29.81F
BINGHAMTON     LGT RAIN  72  71  97 SW8       29.86S FOG
$$

NYZ026>034-041>043-087-181600-
NORTH


CITY           SKY/WX    TMP DP  RH WIND       PRES   REMARKS
WATERTOWN      PTSUNNY   79  73  82 W10       29.74S
FORT DRUM      NOT AVBL
OGDENSBURG     PTSUNNY   79  73  82 SW7       29.71F
MASSENA        CLOUDY    73  70  90 E3        29.73F
SARANAC LAKE   CLOUDY    72  71  97 SW8       29.80F
PLATTSBURGH    PTSUNNY   71  66  84 SE17      29.77F
$$

NYZ001>004-010>016-019>021-085-181600-
WEST


CITY           SKY/WX    TMP DP  RH WIND       PRES   REMARKS
NIAGARA FALLS  PTSUNNY   81  69  67 SW16G26   29.73F
BUFFALO        MOSUNNY   80  67  64 SW14G26   29.75F
DUNKIRK        PTSUNNY   78  67  68 W9        29.77F
JAMESTOWN      PTSUNNY   74  68  81 SW8       29.84F
WELLSVILLE     PTSUNNY   78  66  66 SW9G18    29.87F
ROCHESTER      MOSUNNY   81  69  67 SW10      29.76S
PENN YAN       CLOUDY    78  68  71 SW8       29.80F
$$

             KEY
       WCI = WIND CHILL INDEX
       VSB = VISIBILITY
       HX  = HEAT INDEX
$$




USA.gov is the U.S. government's official web portal to all federal, state and local government web resources and services.